Meteo Giornale » Osservazioni meteo Canada » Yarmouth N S
ore: 04:00 - Osservazioni Meteo Yarmouth N S
Lat. 43° 50' N Lon. 66° 5' W Alt. 43 metri s.l.m.
11 °C
Nebbia
Temp. 24 Ore
11 °C
18 °C
Ovest/Sud-Ovest
11.1 Km/h
Dew point 11 °C
Umidità 100 %
Visibilità 10 Km
Il sole sorge alle ore 06:48
Il sole tramonta alle ore 20:00
| Data e Ora | Cielo e Fenomeni | T °C | DP °C | Um. % | Pres. hPa | Vis. km | Vento km/h | |
|---|---|---|---|---|---|---|---|---|
| Oggi h: 04:00 | Nebbia | 11 | 11 | 100 | 1018 | 10 | O/SO 11.1 | |
| Oggi h: 03:00 | Nebbia nelle vicinanze Nebbia | 11 | 11 | 100 | 1018 | 14 | N 5.5 | |
| Oggi h: 02:00 | Poco Nuvoloso | 12 | 11 | 93 | 1018 | 24 | N 3.7 | |
| Oggi h: 01:00 | Poco Nuvoloso | 13 | 12 | 93 | 1018 | 24 | O 9.3 | |
| Oggi h: 00:00 | Poco Nuvoloso | 13 | 12 | 93 | 1018 | 24 | O/NO 11.1 | |
| Ieri h: 23:00 | Poco Nuvoloso | 14 | 12 | 87 | 1018 | 24 | O 16.7 | |
| Ieri h: 22:00 | Poco Nuvoloso | 13 | 12 | 93 | 1018 | 24 | O 13 | |
| Ieri h: 21:00 | Poco Nuvoloso | 13 | 12 | 93 | 1017 | 24 | O 13 | |
| Ieri h: 20:00 | Poco Nuvoloso | 14 | 12 | 87 | 1017 | 24 | O 9.3 | |
| Ieri h: 19:00 | Poco Nuvoloso | 16 | 13 | 82 | 1018 | 24 | O 11.1 | |
| Ieri h: 18:00 | Poco Nuvoloso | 17 | 13 | 77 | 1017 | 24 | NO 16.7 | |
| Ieri h: 17:00 | Poco Nuvoloso | 17 | 13 | 77 | 1018 | 24 | O/NO 18.5 | |
| Ieri h: 16:00 | Poco Nuvoloso | 18 | 13 | 72 | 1018 | 24 | NO 16.7 | |
| Ieri h: 15:00 | Poco Nuvoloso | 17 | 13 | 77 | 1017 | 24 | N/NO 22.2 | |
| Ieri h: 14:00 | Poco Nuvoloso | 17 | 13 | 77 | 1018 | 24 | NO 18.5 | |
| Ieri h: 13:00 | Poco Nuvoloso | 16 | 12 | 77 | 1018 | 24 | NO 24 | |
| Ieri h: 12:00 | Poco Nuvoloso | 16 | 13 | 82 | 1017 | 24 | NO 16.7 | |
| Ieri h: 11:00 | Poco Nuvoloso | 16 | 13 | 82 | 1017 | 24 | NO 22.2 | |
| Ieri h: 10:00 | Poco Nuvoloso | 15 | 13 | 87 | 1017 | 24 | N/NO 22.2 | |
| Ieri h: 09:00 | Poco Nuvoloso | 15 | 13 | 87 | 1017 | 24 | N/NO 16.7 | |
| Ieri h: 08:00 | Poco Nuvoloso | 13 | 13 | 100 | 1016 | 24 | N/NO 18.5 | |
| Ieri h: 07:00 | Nuvoloso | 13 | 12 | 93 | 1015 | 24 | N/NO 13 | |
| Ieri h: 06:00 | Molto Nuvoloso | 13 | 13 | 100 | 1015 | 19 | N/NO 16.7 | |
| Ieri h: 05:09 | Molto Nuvoloso | 14 | 13 | 93 | 1014 | 24 | NO 22.2 | |
| Ieri h: 05:00 | Poco Nuvoloso | 14 | 13 | 93 | 1014 | 24 | NO 20.3 | |



